Location: Olsztyn
(53.7767°N, 20.4765°E)
Time: 07:28:23
(UTC+01:00)

Transit 4A - Pass Details

Date: 07 October 2022
Orbit: 871 x 972 km, 66.8° (Epoch: 06 December)

Event Time Altitude Azimuth Distance (km) Brightness Sun altitude
Exits shadow 23:34:03 13° 35° (NE) 2,346 10.3 -40.8°
Drops below altitude 10° 23:34:42 10° 38° (NE) 2,568 10.5 -40.9°
Sets 23:37:16 0° 44° (NE) 3,499 11.2 -41.0°
